Content
SEND FEEDBACK

Daily
Averages
Monthly
Summary
United States of America

SYRACUSE, NEW YORK


Home > North America > United States > New York
Elevation: 421 feet     Latitude: 43 07N     Longitude: 076 07W

WEATHER
 
SELECT A DAY
Number of Records: 226,347;   Date Range: 1/1/95 - 9/30/14
 
SHARE

PRINT THIS DATA

[ ← Previous Day ]
WEATHER ALMANAC - SEPTEMBER 28, 2013
[ Next Day → ]
[ °C ]   °F
Weather ElementAverageHighLow
Temperature58 °F72 °F (3:54 pm)45 °F (6:54 am)
Dewpoint49.7 °F55 °F (11:54 am)43 °F (6:54 am)
Humidity75.8 %93 % (2:54 am)51 % (3:54 pm)
Barometer30.27 in30.33 in (8:54 am)30.20 in (11:54 pm)
Wind Speed4.2 mph8.1 mph (4:54 pm)
Weather ElementAverage
Visibility10 mi
Wind DirectionE (85.7 °)

Weather ElementTotal
Precipitation---
Heating Degree Days6.5 (Base 65)
Growing Degree Days8.5 (Base 50)
Averaged from 23 records on September 28, 2013
WEATHER CONDITIONS BREAKOUT
WIND DIRECTION BREAKOUT
WEATHER BY HOUR - SEPTEMBER 28, 2013
[ °C ]   °F
Local TimeTemperatureDewpointHumidityBarometerVisibilityWind DirectionWind SpeedGust SpeedPrecipitationEventsConditions
1:54 AM50.0 °F46.9 °F89 %30.29 in10.0 miEast (80°)5.8 mphClear
2:54 AM48.0 °F46.0 °F93 %30.28 in10.0 miEast (100°)4.6 mphClear
3:54 AM46.9 °F45.0 °F93 %30.29 in10.0 miEast (90°)3.5 mphClear
4:54 AM46.9 °F45.0 °F93 %30.30 in10.0 miEast (90°)5.8 mphClear
5:54 AM46.0 °F44.1 °F93 %30.30 in10.0 miEast (100°)4.6 mphClear
6:54 AM45.0 °F43.0 °F93 %30.31 in10.0 miEast (100°)5.8 mphScattered Clouds
7:54 AM46.9 °F45.0 °F93 %30.32 in10.0 miEast (80°)5.8 mphScattered Clouds
8:54 AM52.0 °F48.0 °F86 %30.33 in10.0 miEast (80°)5.8 mphScattered Clouds
9:54 AM57.9 °F51.1 °F78 %30.33 in10.0 miEast (90°)4.6 mphPartly Cloudy
10:54 AM63.0 °F54.0 °F72 %30.32 in10.0 miENE (70°)4.6 mphPartly Cloudy
11:54 AM66.9 °F55.0 °F66 %30.31 in10.0 miCalmScattered Clouds
12:54 PM68.0 °F55.0 °F63 %30.30 in10.0 miCalmMostly Cloudy
1:54 PM69.1 °F53.1 °F57 %30.27 in10.0 miCalmMostly Cloudy
2:54 PM70.0 °F53.1 °F55 %30.25 in10.0 miSE (130°)6.9 mphMostly Cloudy
3:54 PM72.0 °F53.1 °F51 %30.24 in10.0 miESE (110°)5.8 mphScattered Clouds
4:54 PM70.0 °F51.1 °F51 %30.22 in10.0 miSSE (160°)8.1 mphScattered Clouds
5:54 PM70.0 °F51.1 °F51 %30.22 in10.0 miSouth (170°)4.6 mphPartly Cloudy
6:54 PM64.0 °F52.0 °F65 %30.22 in10.0 miCalmClear
7:54 PM60.1 °F52.0 °F75 %30.22 in10.0 miESE (120°)3.5 mphClear
8:54 PM57.9 °F51.1 °F78 %30.23 in10.0 miESE (120°)3.5 mphClear
9:54 PM55.9 °F50.0 °F80 %30.22 in10.0 miCalmClear
10:54 PM53.1 °F48.9 °F86 %30.21 in10.0 miSE (140°)5.8 mphClear
11:54 PM54.0 °F48.9 °F83 %30.20 in10.0 miSE (140°)6.9 mphClear
Hourly data recorded from KSYR, located miles away from Syracuse, New York







STORIES FROM OUR PARTNERS